Location: *
(44.1392°N, 4.8079°E)
Time: 07:33:24
(UTC+00:00)

USA 267 - Pass Details

Date: 21 June 2021
Orbit: 1102 x 1106 km, 123.0° (Epoch: 28 July)

Event Time Altitude Azimuth Distance (km) Brightness Sun altitude
Exits shadow 00:34:11 33° 165° (SSE) 1,756 3.8 -21.4°
Maximum altitude 00:37:01 56° 226° (SW) 1,294 3.3 -21.3°
Drops below altitude 10° 00:43:27 10° 304° (NW) 2,965 5.7 -21.0°
Sets 00:46:00 0° 309° (NW) 3,927 6.5 -20.9°
